TimeEDT,TemperatureF,Dew PointF,Humidity,Sea Level PressureIn,VisibilityMPH,Wind Direction,Wind SpeedMPH,Gust SpeedMPH,PrecipitationIn,Events,Conditions,WindDirDegrees,DateUTC
12:53 AM,73.9,64.0,71,30.01,10.0,West,8.1,-,0.00,,Clear,260,2013-08-27 04:53:00
1:53 AM,75.0,64.9,71,30.00,10.0,West,10.4,16.1,N/A,,Scattered Clouds,270,2013-08-27 05:53:00
2:53 AM,75.0,64.0,69,29.98,10.0,WNW,11.5,-,N/A,,Partly Cloudy,290,2013-08-27 06:53:00
3:53 AM,75.0,64.9,71,29.98,10.0,West,3.5,-,N/A,,Mostly Cloudy,280,2013-08-27 07:53:00
4:15 AM,75.2,64.4,69,30.01,10.0,West,11.5,16.1,N/A,,Overcast,280,2013-08-27 08:15:00
4:38 AM,71.6,66.2,83,30.02,10.0,West,4.6,-,0.01,,Overcast,270,2013-08-27 08:38:00
4:53 AM,72.0,68.0,87,29.98,8.0,West,4.6,-,0.01,,Overcast,280,2013-08-27 08:53:00
5:53 AM,71.1,66.9,87,29.98,7.0,WNW,5.8,-,N/A,,Partly Cloudy,290,2013-08-27 09:53:00
6:41 AM,71.6,68.0,88,30.03,5.0,SW,4.6,-,N/A,,Overcast,220,2013-08-27 10:41:00
6:53 AM,71.1,68.0,90,30.00,5.0,SSW,3.5,-,N/A,,Overcast,210,2013-08-27 10:53:00
7:53 AM,73.0,68.0,84,30.00,4.0,Calm,Calm,-,N/A,,Haze,0,2013-08-27 11:53:00
8:53 AM,73.9,69.1,85,29.99,4.0,NW,3.5,-,N/A,,Haze,310,2013-08-27 12:53:00
9:53 AM,75.0,69.1,82,30.00,5.0,NW,6.9,-,N/A,,Haze,310,2013-08-27 13:53:00
10:44 AM,78.8,69.8,74,30.03,6.0,NW,8.1,-,N/A,,Haze,320,2013-08-27 14:44:00
10:53 AM,78.1,69.1,74,29.99,6.0,NW,11.5,17.3,N/A,,Haze,310,2013-08-27 14:53:00
11:53 AM,80.1,68.0,67,29.99,8.0,West,10.4,-,N/A,,Scattered Clouds,280,2013-08-27 15:53:00
12:09 PM,80.6,68.0,65,30.03,8.0,NW,9.2,-,N/A,,Mostly Cloudy,320,2013-08-27 16:09:00
12:19 PM,80.6,68.0,65,30.03,9.0,NNW,9.2,-,N/A,,Scattered Clouds,330,2013-08-27 16:19:00
12:30 PM,82.4,68.0,62,30.03,9.0,NW,12.7,-,N/A,,Mostly Cloudy,320,2013-08-27 16:30:00
12:43 PM,80.6,68.0,65,30.02,9.0,NW,10.4,-,N/A,,Mostly Cloudy,310,2013-08-27 16:43:00
12:53 PM,82.9,68.0,60,29.98,10.0,NW,8.1,-,N/A,,Scattered Clouds,320,2013-08-27 16:53:00
1:53 PM,86.0,66.9,53,29.96,10.0,NW,9.2,16.1,N/A,,Mostly Cloudy,310,2013-08-27 17:53:00
2:53 PM,84.9,66.9,55,29.94,10.0,NW,6.9,-,N/A,,Clear,320,2013-08-27 18:53:00
3:26 PM,82.4,68.0,62,29.98,8.0,West,9.2,-,N/A,Thunderstorm,Mostly Cloudy,270,2013-08-27 19:26:00
3:53 PM,75.9,68.0,76,29.94,10.0,West,9.2,20.7,N/A,Thunderstorm,Overcast,270,2013-08-27 19:53:00
4:09 PM,75.2,69.8,83,29.97,9.0,Variable,3.5,-,0.00,Rain,Light Rain,0,2013-08-27 20:09:00
4:53 PM,79.0,70.0,74,29.93,10.0,SW,9.2,-,0.00,,Partly Cloudy,230,2013-08-27 20:53:00
5:53 PM,79.0,71.1,77,29.93,10.0,West,8.1,-,N/A,,Partly Cloudy,270,2013-08-27 21:53:00
6:53 PM,78.1,66.9,68,29.94,10.0,West,10.4,-,N/A,,Partly Cloudy,280,2013-08-27 22:53:00
7:53 PM,75.9,69.1,79,29.95,10.0,West,5.8,-,N/A,,Mostly Cloudy,260,2013-08-27 23:53:00
8:53 PM,75.9,69.1,79,29.97,10.0,West,4.6,-,N/A,,Overcast,280,2013-08-28 00:53:00
9:53 PM,73.9,69.1,85,29.97,9.0,Calm,Calm,-,N/A,,Mostly Cloudy,0,2013-08-28 01:53:00
10:53 PM,73.9,68.0,82,29.97,8.0,West,4.6,-,N/A,,Mostly Cloudy,260,2013-08-28 02:53:00
11:03 PM,73.4,69.8,88,30.00,9.0,West,4.6,-,N/A,,Mostly Cloudy,260,2013-08-28 03:03:00
11:53 PM,73.9,68.0,82,29.97,8.0,WSW,3.5,-,N/A,,Mostly Cloudy,250,2013-08-28 03:53:00